エラスムス彗星

C/2020 S3 ( Erasmus )

English version
Home page
Updated on November 24, 2020

---------------------------------------------------------------------

・ プロフィール

発見日 2020年9月17日
発見光度 18.4等
発見者 Nicolas Erasmus (Asteroid Terrestrial-Impact Last Alert System (ATLAS) search program)

・ 写真集

・ 軌道要素

Epoch 2020 Dec. 17.0 TT = JDT 2459200.5
T 2020 Dec. 12.66945 TT                                 Rudenko
q   0.3986652            (2000.0)            P               Q
z  +0.0047615      Peri.  349.85867     -0.83282786     +0.50269119
 +/-0.0004453      Node   223.00419     -0.48108481     -0.86440543
e   0.9981018      Incl.   19.86200     -0.27377941     -0.01023783
From 240 observations 2020 Sept. 17-Oct. 27, mean residual 0".6.

・ 星図

・ 光度変化

        m1 = 9.0 + 5 logΔ + 10.0 log r

---------------------------------------------------------------------

軌道要素はM.P.E.C. 2020-U270に掲載されたものです。
星図はステラナビゲータ Ver.10 (アストロアーツ) で作成したものです。
光度グラフはComet for Windowsで作成したものです。

---------------------------------------------------------------------

Copyright(C) Seiichi Yoshida (comet@aerith.net). All rights reserved.